Home > Weather > Nagasaki > Past weeks

Flag for Japan Past Weather in Nagasaki, Japan — Yesterday and Last 2 Weeks

Now
70 °F

Fog.


Feels Like: 65 °F
Forecast: 65 / 73 °F
Wind: 2 mph from Southeast

Location: Nagasaki

Current Time: Jun 27, 2016 at 4:17:43 AM

Latest Report: Jun 27, 2016 at 3:00 AM


Visibility: 2 mi

Pressure: 29.89 "Hg

Humidity: 94%

Dew Point: 68 °F

Location of NagasakiLocation

Past Weather in Nagasaki — Graph

°F

Nagasaki Temperature Yesterday

Maximum temperature yesterday: 79 °F (at 3:00 PM)
Minimum temperature yesterday: 67 °F (at 12:00 AM)
Average temperature yesterday: 74 °F

High & Low Weather Summary for the Past Weeks

 TemperatureHumidityPressure
High86 °F (Jun 15, 4:00 PM)100% (Jun 19, 6:00 AM)29.97 "Hg (Jun 19, 6:00 AM)
Low64 °F (Jun 25, 10:00 PM)54% (Jun 15, 3:00 PM)29.50 "Hg (Jun 13, 2:00 PM)
Average75 °F89%29.74 "Hg
* Reported Jun 12 4:00 AM — Jun 27 3:00 AM, Nagasaki, Weather by CustomWeather, © 2016

Note: Actual official high and low records may vary slightly from our data, if they occured in-between our weather recording intervals... More about our weather records

Advertising

Nagasaki Weather History for the Previous 24 Hours

Scroll right to see more
 ConditionsComfort  
Time TempWeatherWind HumidityBarometerVisibility
3:00 AM
Mon, Jun 27
70 °FFog.2 mph94%29.89 "Hg2 mi
2:00 AM71 °FMild.2 mph96%29.89 "HgN/A
1:00 AM72 °FMild.3 mph93%29.91 "HgN/A
12:00 AM72 °FMild.3 mph92%29.92 "HgN/A
11:00 PM
Sun, Jun 26
72 °FMild.2 mph93%29.92 "HgN/A
10:00 PM72 °FMild.3 mph90%29.92 "HgN/A
9:00 PM72 °FFog.5 mph90%29.91 "Hg3 mi
8:00 PM74 °FMild.5 mph86%29.90 "HgN/A
7:00 PM74 °FMild.5 mph84%29.88 "HgN/A
6:00 PM76 °FFog.6 mph80%29.87 "Hg5 mi
5:00 PM77 °FWarm.7 mph72%29.85 "HgN/A
4:00 PM77 °FWarm.7 mph69%29.84 "HgN/A
3:00 PM79 °FPartly sunny.10 mph69%29.85 "Hg5 mi
2:00 PM78 °FWarm.9 mph69%29.85 "HgN/A
1:00 PM78 °FWarm.9 mph71%29.85 "HgN/A
12:00 PM79 °FScattered clouds.10 mph71%29.86 "Hg9 mi
11:00 AM77 °FWarm.9 mph73%29.87 "HgN/A
10:00 AM75 °FMild.9 mph74%29.87 "HgN/A
9:00 AM72 °FOvercast.7 mph82%29.88 "Hg9 mi
8:00 AM72 °FMild.8 mph82%29.88 "HgN/A
7:00 AM71 °FMild.8 mph82%29.87 "HgN/A
6:00 AM71 °FPartly sunny.9 mph85%29.87 "Hg12 mi
5:00 AM71 °FMild.9 mph83%29.86 "HgN/A
4:00 AM71 °FMild.9 mph86%29.85 "HgN/A
Weather by CustomWeather, © 2016

See weather overviewHow to use our weather pages